TimeMST,TemperatureF,Dew PointF,Humidity,Sea Level PressureIn,VisibilityMPH,Wind Direction,Wind SpeedMPH,Gust SpeedMPH,PrecipitationIn,Events,Conditions,WindDirDegrees,DateUTC
12:55 AM,34.9,20.3,55,30.02,10.0,Calm,Calm,-,N/A,,Clear,0,2012-12-05 07:55:00
1:55 AM,39.7,19.9,45,29.98,10.0,SW,4.6,-,N/A,,Clear,220,2012-12-05 08:55:00
2:55 AM,37.9,20.1,49,29.96,10.0,SSE,3.5,-,N/A,,Clear,160,2012-12-05 09:55:00
3:55 AM,36.9,20.8,52,29.94,10.0,West,3.5,-,N/A,,Scattered Clouds,270,2012-12-05 10:55:00
4:55 AM,36.0,21.4,55,29.94,10.0,South,10.4,-,N/A,,Mostly Cloudy,180,2012-12-05 11:55:00
5:55 AM,39.7,28.8,65,29.90,10.0,South,6.9,-,N/A,,Mostly Cloudy,180,2012-12-05 12:55:00
7:55 AM,39.7,28.6,64,29.86,10.0,WSW,3.5,-,N/A,,Mostly Cloudy,240,2012-12-05 14:55:00
8:55 AM,42.6,30.7,63,29.82,10.0,Calm,Calm,-,N/A,,Clear,0,2012-12-05 15:55:00
9:55 AM,52.7,34.0,49,29.80,10.0,WSW,3.5,-,N/A,,Clear,250,2012-12-05 16:55:00
10:55 AM,54.5,33.8,46,29.75,10.0,SSW,6.9,-,N/A,,Clear,210,2012-12-05 17:55:00
11:55 AM,56.1,35.1,45,29.72,10.0,NNW,5.8,-,N/A,,Clear,330,2012-12-05 18:55:00
12:55 PM,56.7,34.5,43,29.69,10.0,NNE,4.6,-,N/A,,Clear,30,2012-12-05 19:55:00
1:55 PM,57.2,34.7,43,29.67,10.0,NNE,3.5,-,N/A,,Clear,30,2012-12-05 20:55:00
2:55 PM,54.1,33.6,46,29.68,10.0,Calm,Calm,-,N/A,,Clear,0,2012-12-05 21:55:00
3:55 PM,49.8,32.4,51,29.72,10.0,North,3.5,-,N/A,,Mostly Cloudy,350,2012-12-05 22:55:00
4:55 PM,47.8,32.0,54,29.75,10.0,North,4.6,-,N/A,,Overcast,350,2012-12-05 23:55:00
5:55 PM,45.5,32.9,61,29.75,10.0,SW,4.6,-,N/A,,Overcast,230,2012-12-06 00:55:00
6:55 PM,47.1,32.4,57,29.77,10.0,Calm,Calm,-,N/A,,Mostly Cloudy,0,2012-12-06 01:55:00
7:55 PM,46.9,33.6,60,29.80,10.0,WNW,5.8,-,N/A,,Mostly Cloudy,300,2012-12-06 02:55:00
8:52 PM,51.8,33.8,50,29.80,10.0,WNW,4.6,-,N/A,Rain,Light Rain Showers,290,2012-12-06 03:52:00
8:55 PM,50.7,34.9,55,29.81,10.0,NW,6.9,-,0.00,Rain,Light Rain Showers,310,2012-12-06 03:55:00
9:55 PM,51.1,41.7,70,29.82,10.0,NNW,24.2,35.7,0.00,Rain,Light Rain,330,2012-12-06 04:55:00
10:23 PM,48.2,37.4,66,29.86,10.0,North,23.0,31.1,N/A,,Overcast,350,2012-12-06 05:23:00
10:55 PM,45.9,34.5,65,29.90,10.0,North,20.7,-,0.00,,Overcast,350,2012-12-06 05:55:00
11:01 PM,44.6,33.8,66,29.90,10.0,North,21.9,-,N/A,Rain,Light Rain Showers,350,2012-12-06 06:01:00
11:14 PM,44.6,32.0,61,29.91,10.0,NNW,21.9,-,N/A,,Overcast,340,2012-12-06 06:14:00
11:55 PM,42.1,24.8,50,29.92,10.0,North,21.9,-,0.00,,Overcast,350,2012-12-06 06:55:00